Hourly Data Report for December 12, 2012

BAGOTVILLE A
QUEBEC

48°20'00.000" N
71°00'00.000" W
159.10 m
7060400
71727
YBG

Download Data

Hourly Data (December 2012)
Hourly Data Report for December 12, 2012
TIME
LST
Temp Definition
°C
Dew Point Definition
°C
Rel Hum Definition
%
Precip. Amount Definition
mm

Wind Dir Definition
10's deg

Wind Spd Definition
km/h
Visibility Definition
km
Stn Press Definition
kPa
Hmdx Definition


Wind Chill Definition


Weather Definition


00:00 -12.1 -14.9 80   29 6 12.9 100.12   -16 Snow Showers
01:00 -12.5 -14.5 85   30 4 8.0 100.17   -15 Snow Showers
02:00 -12.6 -14.1 89   23 4 8.0 100.23   -15 Snow Showers
03:00 -12.5 -14.5 85   27 4 16.1 100.30   -15 Snow Showers
04:00 -12.5 -14.5 85   25 4 16.1 100.33   -15 Snow Showers
05:00 -12.4 -14.3 86   29 4 19.3 100.38   -15 Snow Showers
06:00 -12.1 -14.9 80   27 9 19.3 100.46   -17 Snow Showers
07:00 -12.4 -14.8 82   32 7 24.1 100.52   -17 Snow Showers
08:00 -12.6 -15.0 82   25 4 32.2 100.53   -15 Snow Showers
09:00 -13.3 -15.9 81     0 32.2 100.53     Snow Showers
10:00 -12.6 -15.5 79     0 40.2 100.54     Mainly Clear
11:00 -12.5 -14.9 82     0 40.2 100.48     Mainly Clear
12:00 -11.0 -15.0 72     0 40.2 100.46     Mainly Clear
13:00 -10.5 -15.4 67   8 4 40.2 100.41   -13 Mainly Clear
14:00 -10.0 -13.3 77   9 9 40.2 100.41   -15 Mainly Clear
15:00 -9.6 -12.8 77   15 4 32.2 100.40   -12 Mostly Cloudy
16:00 -9.0 -12.9 73     0 32.2 100.43     Cloudy
17:00 -9.0 -12.9 73   36 6 24.1 100.51   -12 Snow Showers
18:00 -8.7 -13.0 71   34 4 24.1 100.55   -11 Snow Showers
19:00 -9.2 -12.7 76     0 24.1 100.56     Mostly Cloudy
20:00 -8.7 -11.7 79     0 12.9 100.62     Snow Showers
21:00 -9.0 -11.3 83     0 9.7 100.65     Snow Showers
22:00 -9.0 -10.9 86     0 9.7 100.67     Snow Showers
23:00 -8.6 -10.4 87   19 4 12.9 100.70   -11 Snow Showers

Notes on Data Quality.

Legend

  • E = Estimated
  • M = Missing
  • NA = Not Available*
  • [empty] = Indicates an unobserved value
Date modified: